Weather History for KPIH - October, 2013

Change the Weather History Date:

Sunday, October 20, 2013

  Actual Average Record
Temperature  
Mean Temperature 48 °F 46 °F  
Max Temperature 60 °F 59 °F 80 °F (2003)
Min Temperature 35 °F 32 °F 17 °F (1982)
Degree Days  
Heating Degree Days 17 19  
Month to date heating degree days 420 319  
Since 1 July heating degree days 557 568  
Cooling Degree Days 0 0  
Month to date cooling degree days 0 0  
Year to date cooling degree days 688 392  
Moisture  
Dew Point 27 °F    
Average Humidity 45    
Maximum Humidity 64    
Minimum Humidity 26    
Precipitation  
Precipitation 0.00 in 0.03 in 0.48 in (1972)
Month to date precipitation 0.38 0.56  
Year to date precipitation 5.18 9.47  
Snow  
Snow 0.00 in - - ()
Month to date snowfall T  
Since 1 July snowfall T  
Since 1 September snowfall T  
Snow Depth 0.00 in    
Sea Level Pressure  
Sea Level Pressure 30.06 in    
Wind  
Wind Speed 6 mph (SW)    
Max Wind Speed 14 mph    
Max Gust Speed 17 mph    
Visibility 10 miles    
Events      
T = Trace of Precipitation, MM = Missing Value Source: NWS Daily Summary

Daily Weather History Graph

Daily Weather History Graph

Search for Another Location

Airport or City:

Trip Planner

Search our weather history database for the weather conditions in past years. The results will help you decide how hot, cold, wet, or windy it might be!

Date:

Astronomy

Oct. 20, 2013 Rise Set
Actual Time 7:50 AM MDT 6:39 PM MDT
Civil Twilight 7:21 AM MDT 7:07 PM MDT
Nautical Twilight 6:48 AM MDT 7:40 PM MDT
Astronomical Twilight 6:15 AM MDT 8:13 PM MDT
Moon 7:47 PM MDT (10/20) 9:34 AM MDT (10/20)
Length of Visible Light 11h 46m
Length of Day
10h 49m
Full, 97% of the Moon is Illuminated
Oct 20
Full
Oct 26
Last Quarter
Nov 3
New
Nov 9
First Quarter
Nov 17
Full

Hourly Weather History & Observations

Time (MDT) Temp. Windchill Dew Point Humidity Pressure Visibility Wind Dir Wind Speed Gust Speed Precip Events Conditions
12:53 AM 51.1 °F - 26.1 °F 38% 29.99 in 10.0 mi SSW 12.7 mph - N/A   Clear
1:53 AM 48.9 °F - 27.0 °F 43% 30.00 in 10.0 mi SSW 10.4 mph - N/A   Clear
2:53 AM 50.0 °F - 26.1 °F 39% 29.99 in 10.0 mi SW 12.7 mph - N/A   Clear
3:53 AM 46.9 °F - 27.0 °F 46% 30.00 in 10.0 mi SW 8.1 mph - N/A   Mostly Cloudy
4:53 AM 46.0 °F 41.0 °F 27.0 °F 47% 30.00 in 10.0 mi SW 10.4 mph - N/A   Clear
5:53 AM 45.0 °F 40.1 °F 27.0 °F 49% 30.02 in 10.0 mi SW 9.2 mph - N/A   Clear
6:53 AM 39.0 °F 35.7 °F 26.1 °F 60% 30.06 in 10.0 mi SW 4.6 mph - N/A   Clear
7:53 AM 37.9 °F - 27.0 °F 65% 30.08 in 10.0 mi Calm Calm - N/A   Clear
8:53 AM 39.9 °F 36.7 °F 28.9 °F 65% 30.10 in 10.0 mi South 4.6 mph - N/A   Clear
9:53 AM 45.0 °F 43.5 °F 30.0 °F 56% 30.09 in 10.0 mi SW 3.5 mph - N/A   Clear
10:53 AM 50.0 °F - 30.0 °F 46% 30.09 in 10.0 mi West 12.7 mph - N/A   Clear
11:53 AM 53.1 °F - 30.0 °F 41% 30.08 in 10.0 mi West 11.5 mph - N/A   Clear
12:53 PM 55.0 °F - 28.9 °F 37% 30.07 in 10.0 mi West 11.5 mph - N/A   Clear
1:53 PM 57.0 °F - 28.0 °F 33% 30.04 in 10.0 mi WSW 9.2 mph - N/A   Clear
2:53 PM 57.9 °F - 24.1 °F 27% 30.02 in 10.0 mi SW 4.6 mph - N/A   Clear
3:53 PM 57.9 °F - 25.0 °F 28% 30.02 in 10.0 mi West 5.8 mph - N/A   Clear
4:53 PM 59.0 °F - 25.0 °F 27% 30.03 in 10.0 mi Calm Calm - N/A   Clear
5:53 PM 57.0 °F - 25.0 °F 29% 30.04 in 10.0 mi WSW 5.8 mph - N/A   Clear
6:53 PM 46.0 °F 43.9 °F 26.1 °F 46% 30.09 in 10.0 mi South 4.6 mph - N/A   Clear
7:53 PM 44.1 °F 42.5 °F 26.1 °F 49% 30.10 in 10.0 mi ESE 3.5 mph - N/A   Clear
8:53 PM 43.0 °F 38.8 °F 26.1 °F 51% 30.11 in 10.0 mi SSW 6.9 mph - N/A   Clear
9:53 PM 42.1 °F 37.7 °F 27.0 °F 55% 30.12 in 10.0 mi South 6.9 mph - N/A   Clear
10:53 PM 41.0 °F 39.0 °F 28.0 °F 60% 30.12 in 10.0 mi SE 3.5 mph - N/A   Clear
11:53 PM 39.0 °F - 27.0 °F 62% 30.13 in 10.0 mi Calm Calm - N/A   Clear